Showing default

BRITE-PL 2, 40119

Orbit data source: Space-Track

BRITE-PL 2, 40119 is a payload satellite owned by CBK (PL) in SSO that was launched on Tue, 19 Aug 2014 UTC via a CHANG ZHENG 4B launch vehicle from the Taiyaun Space Center, China (TSC). Payload-class satellites include a variety of spacecraft equipped with specific instruments for various scientific and technological missions. These include communications satellites like Starlink; space stations such as the ISS; scientific satellites like the Hubble; Earth observation satellites from companies like Planet Labs, Umbra, and HawkEye 360; GPS; miniature CubeSats for education and research; and military/defense satellites.

Loading next visibility...
Identifier
40119, 2014-049B
Orbit
SSO
Country
Flag of PLPL / POL
Related business
Manufacturer
CBKPL/UTIAS
Mission
Operational Civil Astronomy
Bus & Motor
GNB, Unknown motor
Mass
6.8 kg wet, 6.8 kg dry
Launch date (UTC)
2014-08-19 (12 years ago)
Launch vehicle
CHANG ZHENG 4B
Launch site
Taiyaun Space Center, China (TSC)
Object type
Payload
Rocket body
Debris
Shape & HBR
Box, 0.2 m
Radar Cross Section
0.060 m², Medium (>0.1 m² and < 1m²)

Expand to show TLE details & history
Last TLE update: 1 day ago

TLE from 1 day ago
0 BRITE-PL 2
1 40119U 14049B   26264.83730529  .00000772  00000-0  76239-4 0  9997
2 40119  97.9171  17.6409 0014657 144.5740 215.6457 14.94872291655885
Epoch: 2026-09-21T20:05Z
TLE epoch observation values (Epoch: 2026-09-21T20:05:43.177Z)
Latitude
0.00005°
Longitude
75.49958°
Altitude
594.108 km
Speed
7.558 km/s
True Right ascension
01h 10m 33s
True Declination
0° 00' 00"
Sunlit
Object was in full shadow at epoch
Visualization orbit readout
Latitude
Unknown
Longitude
Unknown
Altitude
Unknown
Speed
Unknown
Apparent Right ascension
Unknown
Apparent Declination
Unknown
Sunlit
N/A
Visualization observer readout
Local Sidereal Time
21:11:24
Azimuth
Unknown
Elevation
Unknown
Doppler factor
Unknown
Orbital elements
Apogee altitude
589.989 km
Perigee altitude
569.593 km
Semi-major axis
6,957.928 km
Eccentricity
0.00147
Inclination
97.9171°
RAAN
17.6409°
Arg. of periapsis
144.574°
True anomaly
215.54797°
Mean anomaly
215.6457°
Eccentric anomaly
215.59682°
Mean motion
3.73958 °/min
Orbital period
96.27 mins
BSTAR
0.000076239
Loading maneuver chart data...
Computing Atmospheric mass density...
Loading historical data...
Loading historical data...
Loading historical data...
Loading historical data...
Loading historical data...
Loading historical data...
Loading historical data...
Other satellites on launch #49 in the year 2014 (2014-08-19 UTC)

Documentation

Showing up to 5 results
|